Spokane, WA

1:04 AM PST on February 13, 2016 (GMT -0800)
Felts

Weather History for KSFF - April, 2013

Change the Weather History Date:

Friday, April 12, 2013

  Actual Average Record
Temperature  
Mean Temperature 44 °F 46 °F  
Max Temperature 56 °F 57 °F 75 °F (2004)
Min Temperature 31 °F 36 °F 24 °F (1997)
Degree Days  
Heating Degree Days 21 19  
Month to date heating degree days 188 234  
Since 1 July heating degree days 4984 5555  
Cooling Degree Days 0 0  
Month to date cooling degree days 0 0  
Year to date cooling degree days 0 0  
Moisture  
Dew Point 31 °F    
Average Humidity 61    
Maximum Humidity 89    
Minimum Humidity 32    
Precipitation  
Precipitation 0.08 in 0.04 in 0.21 in (2009)
Month to date precipitation 0.53 0.57  
Year to date precipitation 3.76 5.47  
Sea Level Pressure  
Sea Level Pressure 29.87 in    
Wind  
Wind Speed 7 mph (SSW)    
Max Wind Speed 26 mph    
Max Gust Speed 33 mph    
Visibility 10 miles    
Events Rain    
T = Trace of Precipitation, MM = Missing Value Source: NWS Daily Summary

Daily Weather History Graph

Daily Weather History Graph

Search for Another Location

Airport or City:

Trip Planner

Search our weather history database for the weather conditions in past years. The results will help you decide how hot, cold, wet, or windy it might be!

Date:

Astronomy

Apr. 12, 2013 Rise Set
Actual Time 6:05 AM PDT 7:35 PM PDT
Civil Twilight 5:33 AM PDT 8:07 PM PDT
Nautical Twilight 4:54 AM PDT 8:46 PM PDT
Astronomical Twilight 4:12 AM PDT 9:29 PM PDT
Moon 7:08 AM PDT (4/12) 10:21 PM PDT (4/12)
Length of Visible Light 14h 34m
Length of Day
13h 29m
Waxing Crescent, 6% of the Moon is Illuminated
Apr 12
Waxing Crescent
Apr 18
First Quarter
Apr 25
Full
May 2
Last Quarter
May 9
New

Hourly Weather History & Observations

Time (PDT) Temp. Windchill Dew Point Humidity Pressure Visibility Wind Dir Wind Speed Gust Speed Precip Events Conditions
12:53 AM 37.0 °F 33.3 °F 28.9 °F 73% 30.11 in 10.0 mi NNE 4.6 mph - N/A   Clear
1:53 AM 36.0 °F - 28.9 °F 76% 30.10 in 10.0 mi Calm Calm - N/A   Clear
2:53 AM 34.0 °F - 28.9 °F 82% 30.09 in 10.0 mi Calm Calm - N/A   Clear
3:53 AM 34.0 °F - 28.9 °F 82% 30.08 in 10.0 mi Calm Calm - N/A   Clear
4:53 AM 35.1 °F - 30.0 °F 82% 30.09 in 10.0 mi Calm Calm - N/A   Scattered Clouds
5:53 AM 32.0 °F - 28.9 °F 88% 30.10 in 10.0 mi Calm Calm - N/A   Partly Cloudy
6:53 AM 34.0 °F - 30.0 °F 85% 30.10 in 10.0 mi Calm Calm - N/A   Partly Cloudy
7:53 AM 39.0 °F - 33.1 °F 79% 30.08 in 10.0 mi Calm Calm - N/A   Partly Cloudy
8:53 AM 42.1 °F 40.2 °F 30.9 °F 65% 30.06 in 10.0 mi SE 3.5 mph - N/A   Scattered Clouds
9:53 AM 46.0 °F - 30.0 °F 54% 30.03 in 10.0 mi Calm Calm - N/A   Scattered Clouds
10:53 AM 48.9 °F - 30.0 °F 48% 30.00 in 10.0 mi Variable 4.6 mph - N/A   Mostly Cloudy
11:53 AM 51.1 °F - 32.0 °F 48% 29.96 in 10.0 mi SW 9.2 mph - N/A   Mostly Cloudy
12:53 PM 55.0 °F - 30.9 °F 40% 29.91 in 10.0 mi SW 11.5 mph 25.3 mph N/A   Mostly Cloudy
1:53 PM 54.0 °F - 26.1 °F 34% 29.87 in 10.0 mi SSW 8.1 mph - N/A   Mostly Cloudy
2:53 PM 55.9 °F - 28.9 °F 36% 29.83 in 10.0 mi South 9.2 mph 18.4 mph N/A   Mostly Cloudy
3:53 PM 55.0 °F - 27.0 °F 34% 29.79 in 10.0 mi SSW 13.8 mph 20.7 mph N/A   Overcast
4:53 PM 54.0 °F - 27.0 °F 35% 29.75 in 10.0 mi SW 15.0 mph - N/A   Overcast
5:53 PM 51.1 °F - 26.1 °F 38% 29.74 in 10.0 mi SSW 17.3 mph 28.8 mph N/A   Overcast
6:53 PM 46.9 °F - 30.9 °F 54% 29.74 in 10.0 mi WSW 17.3 mph 31.1 mph 0.00 in Rain Light Rain
7:43 PM 42.8 °F 36.6 °F 35.6 °F 76% 29.70 in 10.0 mi SW 11.5 mph 20.7 mph 0.00 in Rain Light Rain
7:53 PM 43.0 °F 36.8 °F 36.0 °F 76% 29.72 in 7.0 mi SW 11.5 mph - 0.01 in Rain Light Rain
8:53 PM 42.1 °F 34.5 °F 36.0 °F 79% 29.69 in 10.0 mi SSW 15.0 mph 19.6 mph 0.03 in Rain Light Rain
9:18 PM 41.0 °F 34.7 °F 35.6 °F 81% 29.67 in 8.0 mi SSW 10.4 mph - 0.01 in Rain Light Rain
9:48 PM 39.2 °F 34.2 °F 35.6 °F 87% 29.66 in 10.0 mi SSW 6.9 mph - 0.04 in Rain Light Rain
9:53 PM 39.9 °F 32.1 °F 35.1 °F 83% 29.67 in 10.0 mi SSW 13.8 mph - 0.04 in Rain Light Rain
10:20 PM 39.2 °F 37.0 °F 33.8 °F 81% 29.63 in 10.0 mi South 3.5 mph - 0.00 in   Overcast
10:53 PM 39.9 °F - 35.1 °F 83% 29.63 in 10.0 mi Calm Calm - 0.00 in   Overcast
11:53 PM 39.9 °F - 36.0 °F 86% 29.60 in 10.0 mi Calm Calm - N/A   Overcast